Regional Weather Roundup
Issued by NWS

Home | Current Version | Previous Version | Graphics & Text | Print | Product List | Glossary On
Versions: 1 2 3 4 5 6 7 8 9 10 11 12 13 14 15 16 17 18 19 20 21 22 23 24 25 26 27 28 29 30 31 32 33 34 35 36 37 38 39 40 41 42 43 44 45 46 47 48 49 50
000
ASUS43 KMKX 232200
RWRWI

WISCONSIN REGIONAL WEATHER ROUNDUP
NATIONAL WEATHER SERVICE MILWAUKEE/SULLIVAN WI
500 PM CDT THU OCT 23 2014

NOTE: "FAIR" INDICATES FEW OR NO CLOUDS BELOW 12,000 FEET WITH NO
SIGNIFICANT WEATHER AND/OR OBSTRUCTIONS TO VISIBILITY.

WIZ001-002-006>008-014>016-023>028-232300-
NORTHWEST WISCONSIN

CITY           SKY/WX    TMP DP  RH WIND       PRES   REMARKS
SUPERIOR ARPT  CLEAR     59  50  72 SW6       29.94S
ASHLAND        CLOUDY    54  49  83 S6        29.97S
HAYWARD        CLOUDY    52  49  89 S6        29.98S
SIREN          SUNNY     58  50  74 SE5       29.96S
CUMBERLAND     CLOUDY    54  48  82 SW3       29.98S
RICE LAKE      CLOUDY    54  49  85 SE3       30.00S
CHETEK         CLOUDY    52  50  94 CALM      30.00R
LADYSMITH      FOG       50  49  97 S5        30.02R VSB 1/2
EAU CLAIRE     NOT AVBL
MENOMONIE      CLOUDY    54  52  94 SE5       30.00S
NEW RICHMOND   SUNNY     61  51  69 SE5       29.97S
OSCEOLA        SUNNY     63  53  69 SE8       29.98F
$$

WIZ003>005-009-010-017-018-232300-
NORTH CENTRAL WISCONSIN

CITY           SKY/WX    TMP DP  RH WIND       PRES   REMARKS
MANITOWISH WTR CLOUDY    46  46 100 S5        29.99S FOG
ARBOR VITAE    CLOUDY    46  44  95 S7        30.00S FOG
WOODRUFF       CLOUDY    46  44  95 S7        30.00S FOG
RHINELANDER    CLOUDY    44  43  96 S6        30.01F FOG
EAGLE RIVER    DRIZZLE   44  44 100 CALM      30.00S
LAND O LAKES   CLOUDY    46  45  97 SW5       30.01R
PHILLIPS       CLOUDY    47  46  99 S6        29.99S FOG
TOMAHAWK       CLOUDY    45  43  95 CALM      30.02F FOG
MEDFORD        FOG       46  46  99 S3        30.01S VSB 1
MERRILL        CLOUDY    46  46  99 SW3       30.02S FOG
$$

WIZ029-030-035-036-043>047-232300-
CENTRAL WISCONSIN

CITY           SKY/WX    TMP DP  RH WIND       PRES   REMARKS
WAUSAU         CLOUDY    46  45  96 S5        30.01S FOG
MOSINEE        CLOUDY    46  46 100 S3        30.03S FOG
MARSHFIELD     FOG       48  47  96 SW3       30.01S VSB 1/2
STEVENS POINT  CLOUDY    45  45  99 CALM      30.03S FOG
WAUPACA        RAIN      49  47  96 S5        30.05R
WAUTOMA        CLOUDY    46  46 100 CALM      30.05S FOG
WISC RAPIDS    CLOUDY    47  46  97 S5        30.04S
CAMP DOUGLAS   NOT AVBL
$$

WIZ011>013-019>022-031-037>040-048>050-232300-
NORTHEAST WISCONSIN

CITY           SKY/WX    TMP DP  RH WIND       PRES   REMARKS
ANTIGO         CLOUDY    43  43 100 S6        30.02F FOG
SHAWANO        RAIN      49  47  92 CALM      30.05S
OCONTO         CLOUDY    49  48  93 CALM      30.04F
STURGEON BAY   CLOUDY    50  45  81 S8        30.06R
GREEN BAY      LGT RAIN  49  47  93 SW5       30.05S FOG
MANITOWOC      NOT AVBL
APPLETON       LGT RAIN  48  46  93 S12       30.05S FOG
CLINTONVILLE   CLOUDY    46  45  93 S6        30.04S FOG
OSHKOSH        LGT RAIN  50  48  93 E3        30.05F FOG
$$

WIZ032>034-041-042-053>061-232300-
SOUTHWEST WISCONSIN

CITY           SKY/WX    TMP DP  RH WIND       PRES   REMARKS
LA CROSSE      CLOUDY    50  48  93 S6        30.02S FOG
SPARTA         CLOUDY    47  47  97 CALM      30.03F FOG
VIROQUA        CLOUDY    47  47 100 S3        30.02S VSB 1/2
BOSCOBEL       CLOUDY    50  47  89 CALM      30.04S FOG
PRAIRIE DU CHI CLOUDY    50  47  90 CALM      30.03S
PLATTEVILLE    CLOUDY    51  49  93 S8        30.04S
$$

WIZ056-057-062-063-064-067-068-232300-
SOUTH CENTRAL WISCONSIN

CITY           SKY/WX    TMP DP  RH WIND       PRES   REMARKS
REEDSBURG      CLOUDY    47  46  98 S5        30.03S FOG
BARABOO/DELLS  CLOUDY    48  46  92 SW3       30.03S FOG
LONE ROCK      CLOUDY    54  46  76 CALM      30.04R HAZE
MINERAL POINT  CLOUDY    50  48  93 SW6       30.03S FOG
MADISON        CLOUDY    52  48  86 S3        30.04S
MIDDLETON      CLOUDY    52  49  90 S3        30.04S
WATERTOWN      NOT AVBL
MONROE         RAIN      52  50  93 SW7       30.04R
JANESVILLE     NOT AVBL
$$

WIZ051-052-058>065-066-070>072-232300-
SOUTHEAST WISCONSIN

CITY           SKY/WX    TMP DP  RH WIND       PRES   REMARKS
MILWAUKEE      LGT RAIN  54  45  71 SE12      30.06F
WAUKESHA       CLOUDY    54  45  71 CALM      30.06F
MILWAUKEE/TIMM NOT AVBL
RACINE         CLOUDY    54  46  74 S9        30.08S
BURLINGTON     CLOUDY    56  42  61 SW6       30.06S
KENOSHA        CLOUDY    57  43  59 SW8       30.07R
FOND DU LAC    LGT RAIN  50  48  93 CALM      30.05F
SHEBOYGAN      LGT RAIN  50  47  89 S7        30.07F FOG
WEST BEND      DRIZZLE   50  46  87 CALM      30.06S
JUNEAU         CLOUDY    49  48  95 CALM      30.06F
$$

LSZ147-162-232300-
LAKE SUPERIOR

STATION/POSITION TIME  TEMP    WIND        PRES    WAVE
                       AIR SEA DIR/SP/G            HT/PER
                 (UTC) (F)     (DEG/KT/KT) (MB)    (FT/S)
W MID LAKE BUOY  2050   47 46  200/  6/  8 1014.8F   1/ 3
DEVILS ISLAND    2100   50     210/  5/  6 1014.9R
PORT WING        2100   52     280/  3/  5 1014.6S
SAXON HARBOR     2100   54     200/  8/ 11 1014.6
$$

LMZ867-665-643>646-232300-
LAKE MICHIGAN

STATION/POSITION TIME  TEMP    WIND        PRES    WAVE
                       AIR SEA DIR/SP/G            HT/PER
                 (UTC) (F)     (DEG/KT/KT) (MB)    (FT/S)
CHAMBERS ISLAND  2100   51     160/  2/  4 1017.6F
N MID LAKE BUOY  2050   51 51  190/ 16/ 17 1018.6F   4/ 5
NORTHPORT PIER   2100   52     160/  6/ 14 1017.6F
SISTER BAY       2113          200/ 13/ 15   N/A
ALGOMA LAKESHORE 1941          220/ 18/ 20   N/A
KEWAUNEE LAKESHO 2100   51     170/ 11/ 13 1016.8F
SHEBOYGAN LAKESH 2100   51 50  190/ 15/ 17 1019.3R
PORT WASHINGTON  2100   53     190/  9/ 12 1019.0
ATWATER BUOY     2100   53     160/ 16/ 19 1018.9F
MILWAUKEE LAKESH 2100   52     150/ 14/ 16   N/A
S MID LAKE BUOY  2050   53 54  180/ 16/ 17 1019.5F   2/ 4
KENOSHA   LAKESH 2100   54     160/ 12/ 16 1017.9F
$$

TC  - TEMPERATURE IN CELSIUS
VSB - VISIBILITY IN STATUTE MILES
WCI - WIND CHILL INDEX
HX  - HEAT INDEX




USA.gov is the U.S. government's official web portal to all federal, state and local government web resources and services.